Time,TemperatureF,DewpointF,PressureIn,WindDirection,WindDirectionDegrees,WindSpeedMPH,WindSpeedGustMPH,Humidity,HourlyPrecipIn,Conditions,Clouds,dailyrainin,SoftwareType,DateUTC
2015-07-03 00:03:00,59.0,56.0,-100.00,WSW,245,0.0,1.0,87,-99.99,,,-99.99,,2015-07-03 05:03:00,
2015-07-03 00:13:00,60.0,56.0,-100.00,WNW,300,1.0,1.0,88,-99.99,,,-99.99,,2015-07-03 05:13:00,
2015-07-03 00:23:00,59.0,56.0,-100.00,WNW,300,0.0,0.0,88,-99.99,,,-99.99,,2015-07-03 05:23:00,
2015-07-03 00:33:00,59.0,56.0,-100.00,SSW,205,1.0,1.0,89,-99.99,,,-99.99,,2015-07-03 05:33:00,
2015-07-03 00:43:00,59.0,56.0,-100.00,SSW,200,0.0,1.0,90,-99.99,,,-99.99,,2015-07-03 05:43:00,
2015-07-03 01:03:00,58.0,56.0,-100.00,SSW,200,0.0,0.0,91,-99.99,,,-99.99,,2015-07-03 06:03:00,
2015-07-03 01:13:00,58.0,56.0,-100.00,South,185,0.0,1.0,92,-99.99,,,-99.99,,2015-07-03 06:13:00,
2015-07-03 01:23:00,58.0,56.0,-100.00,SW,220,1.0,2.0,92,-99.99,,,-99.99,,2015-07-03 06:23:00,
2015-07-03 01:34:00,58.0,56.0,-100.00,WNW,290,1.0,2.0,93,-99.99,,,-99.99,,2015-07-03 06:34:00,
2015-07-03 01:44:00,58.0,56.0,-100.00,WNW,300,1.0,1.0,93,-99.99,,,-99.99,,2015-07-03 06:44:00,
2015-07-03 02:03:00,58.0,56.0,-100.00,West,260,0.0,1.0,93,-99.99,,,-99.99,,2015-07-03 07:03:00,
2015-07-03 02:13:00,57.0,55.0,-100.00,West,265,1.0,2.0,93,-99.99,,,-99.99,,2015-07-03 07:13:00,
2015-07-03 02:23:00,57.0,55.0,-100.00,WNW,300,0.0,1.0,93,-99.99,,,-99.99,,2015-07-03 07:23:00,
2015-07-03 02:33:00,57.0,56.0,-100.00,WNW,300,0.0,1.0,93,-99.99,,,-99.99,,2015-07-03 07:33:00,
2015-07-03 02:43:00,57.0,56.0,-100.00,WNW,300,0.0,1.0,93,-99.99,,,-99.99,,2015-07-03 07:43:00,
2015-07-03 03:03:00,57.0,55.0,-100.00,WSW,240,1.0,1.0,94,-99.99,,,-99.99,,2015-07-03 08:03:00,
2015-07-03 03:13:00,56.0,55.0,-100.00,SW,225,2.0,2.0,94,-99.99,,,-99.99,,2015-07-03 08:13:00,
2015-07-03 03:23:00,57.0,55.0,-100.00,West,270,1.0,2.0,94,-99.99,,,-99.99,,2015-07-03 08:23:00,
2015-07-03 03:33:00,56.0,55.0,-100.00,West,280,0.0,1.0,94,-99.99,,,-99.99,,2015-07-03 08:33:00,
2015-07-03 03:43:00,56.0,55.0,-100.00,SW,220,0.0,2.0,94,-99.99,,,-99.99,,2015-07-03 08:43:00,
2015-07-03 04:03:00,55.0,54.0,-100.00,WSW,240,1.0,2.0,95,-99.99,,,-99.99,,2015-07-03 09:03:00,
2015-07-03 04:13:00,56.0,54.0,-100.00,NW,320,1.0,1.0,95,-99.99,,,-99.99,,2015-07-03 09:13:00,
2015-07-03 04:23:00,55.0,54.0,-100.00,NNW,340,1.0,1.0,95,-99.99,,,-99.99,,2015-07-03 09:23:00,
2015-07-03 04:33:00,56.0,54.0,-100.00,NNW,335,1.0,2.0,95,-99.99,,,-99.99,,2015-07-03 09:33:00,
2015-07-03 04:43:00,56.0,55.0,-100.00,North,0,1.0,2.0,95,-99.99,,,-99.99,,2015-07-03 09:43:00,
2015-07-03 05:03:00,55.0,54.0,-100.00,NNW,335,0.0,2.0,95,-99.99,,,-99.99,,2015-07-03 10:03:00,
2015-07-03 05:13:00,55.0,54.0,-100.00,WNW,295,2.0,2.0,95,-99.99,,,-99.99,,2015-07-03 10:13:00,
2015-07-03 05:23:00,55.0,54.0,-100.00,WNW,295,2.0,2.0,95,-99.99,,,-99.99,,2015-07-03 10:23:00,
2015-07-03 05:33:00,55.0,53.0,-100.00,North,355,2.0,3.0,95,-99.99,,,-99.99,,2015-07-03 10:33:00,
2015-07-03 05:43:00,55.0,54.0,-100.00,North,355,2.0,2.0,96,-99.99,,,-99.99,,2015-07-03 10:43:00,
2015-07-03 05:53:00,55.0,54.0,-100.00,North,0,2.0,4.0,96,-99.99,,,-99.99,,2015-07-03 10:53:00,
2015-07-03 06:03:00,55.0,54.0,-100.00,North,0,1.0,2.0,96,-99.99,,,-99.99,,2015-07-03 11:03:00,
2015-07-03 06:13:00,55.0,54.0,-100.00,NNW,335,0.0,2.0,96,-99.99,,,-99.99,,2015-07-03 11:13:00,
2015-07-03 06:23:00,55.0,54.0,-100.00,North,0,1.0,2.0,96,-99.99,,,-99.99,,2015-07-03 11:23:00,
2015-07-03 06:33:00,55.0,54.0,-100.00,NNE,15,0.0,2.0,96,-99.99,,,-99.99,,2015-07-03 11:33:00,
2015-07-03 06:44:00,55.0,54.0,-100.00,NNE,15,0.0,2.0,96,-99.99,,,-99.99,,2015-07-03 11:44:00,
2015-07-03 07:03:00,56.0,55.0,-100.00,NNW,340,1.0,1.0,96,-99.99,,,-99.99,,2015-07-03 12:03:00,
2015-07-03 07:13:00,57.0,56.0,-100.00,NNW,335,0.0,1.0,96,-99.99,,,-99.99,,2015-07-03 12:13:00,
2015-07-03 07:23:00,57.0,56.0,-100.00,WNW,300,1.0,1.0,96,-99.99,,,-99.99,,2015-07-03 12:23:00,
2015-07-03 07:34:00,58.0,57.0,-100.00,NNW,340,1.0,1.0,95,-99.99,,,-99.99,,2015-07-03 12:34:00,
2015-07-03 07:43:00,58.0,57.0,-100.00,North,10,2.0,3.0,95,-99.99,,,-99.99,,2015-07-03 12:43:00,
2015-07-03 08:03:00,59.0,58.0,-100.00,NE,35,1.0,2.0,94,-99.99,,,-99.99,,2015-07-03 13:03:00,
2015-07-03 08:13:00,60.0,58.0,-100.00,NNE,15,2.0,4.0,93,-99.99,,,-99.99,,2015-07-03 13:13:00,
2015-07-03 08:23:00,61.0,59.0,-100.00,NE,35,2.0,3.0,92,-99.99,,,-99.99,,2015-07-03 13:23:00,
2015-07-03 08:33:00,61.0,58.0,-100.00,NE,40,2.0,4.0,89,-99.99,,,-99.99,,2015-07-03 13:33:00,
2015-07-03 08:43:00,61.0,58.0,-100.00,NE,40,2.0,4.0,89,-99.99,,,-99.99,,2015-07-03 13:43:00,
2015-07-03 08:53:00,62.0,58.0,-100.00,East,80,1.0,4.0,85,-99.99,,,-99.99,,2015-07-03 13:53:00,
2015-07-03 09:03:00,62.0,58.0,-100.00,East,80,1.0,4.0,85,-99.99,,,-99.99,,2015-07-03 14:03:00,
2015-07-03 09:12:00,63.0,57.0,-100.00,ENE,70,1.0,3.0,79,-99.99,,,-99.99,,2015-07-03 14:12:00,
2015-07-03 09:23:00,65.0,58.0,-100.00,ESE,115,1.0,2.0,77,-99.99,,,-99.99,,2015-07-03 14:23:00,
2015-07-03 09:33:00,66.0,58.0,-100.00,ESE,115,1.0,4.0,75,-99.99,,,-99.99,,2015-07-03 14:33:00,
2015-07-03 09:43:00,66.0,58.0,-100.00,ESE,115,1.0,4.0,75,-99.99,,,-99.99,,2015-07-03 14:43:00,
2015-07-03 10:03:00,68.0,60.0,-100.00,WSW,240,1.0,3.0,74,-99.99,,,-99.99,,2015-07-03 15:03:00,
2015-07-03 10:13:00,68.0,58.0,-100.00,North,0,0.0,3.0,70,-99.99,,,-99.99,,2015-07-03 15:13:00,
2015-07-03 10:23:00,68.0,57.0,-100.00,ENE,60,3.0,4.0,66,-99.99,,,-99.99,,2015-07-03 15:23:00,
2015-07-03 10:33:00,69.0,56.0,-100.00,NE,55,1.0,5.0,64,-99.99,,,-99.99,,2015-07-03 15:33:00,
2015-07-03 10:44:00,69.0,56.0,-100.00,NE,55,1.0,5.0,64,-99.99,,,-99.99,,2015-07-03 15:44:00,
2015-07-03 11:04:00,70.0,53.0,-100.00,NNE,25,6.0,7.0,55,-99.99,,,-99.99,,2015-07-03 16:04:00,
2015-07-03 11:13:00,71.0,53.0,-100.00,North,355,5.0,7.0,51,-99.99,,,-99.99,,2015-07-03 16:13:00,
2015-07-03 11:23:00,71.0,53.0,-100.00,NNE,30,5.0,-999.0,52,-99.99,,,-99.99,,2015-07-03 16:23:00,
2015-07-03 11:33:00,70.0,51.0,-100.00,NNE,15,6.0,9.0,50,-99.99,,,-99.99,,2015-07-03 16:33:00,
2015-07-03 11:43:00,70.0,51.0,-100.00,NE,35,4.0,7.0,49,-99.99,,,-99.99,,2015-07-03 16:43:00,
2015-07-03 11:53:00,72.0,52.0,-100.00,North,0,4.0,7.0,49,-99.99,,,-99.99,,2015-07-03 16:53:00,
2015-07-03 12:03:00,71.0,51.0,-100.00,NNE,15,6.0,9.0,47,-99.99,,,-99.99,,2015-07-03 17:03:00,
2015-07-03 12:13:00,73.0,52.0,-100.00,NNE,15,4.0,7.0,47,-99.99,,,-99.99,,2015-07-03 17:13:00,
2015-07-03 12:23:00,73.0,52.0,-100.00,NNE,15,4.0,7.0,47,-99.99,,,-99.99,,2015-07-03 17:23:00,
2015-07-03 12:34:00,73.0,52.0,-100.00,NE,50,4.0,7.0,46,-99.99,,,-99.99,,2015-07-03 17:34:00,
2015-07-03 12:44:00,73.0,51.0,-100.00,NNW,345,3.0,7.0,45,-99.99,,,-99.99,,2015-07-03 17:44:00,
2015-07-03 13:04:00,74.0,53.0,-100.00,SE,125,1.0,7.0,48,-99.99,,,-99.99,,2015-07-03 18:04:00,
2015-07-03 13:24:00,74.0,51.0,-100.00,SSW,210,2.0,6.0,43,-99.99,,,-99.99,,2015-07-03 18:24:00,
2015-07-03 13:34:00,75.0,51.0,-100.00,ENE,65,2.0,6.0,43,-99.99,,,-99.99,,2015-07-03 18:34:00,
2015-07-03 13:44:00,75.0,51.0,-100.00,NE,40,1.0,6.0,42,-99.99,,,-99.99,,2015-07-03 18:44:00,
2015-07-03 13:53:00,76.0,51.0,-100.00,SW,215,2.0,6.0,42,-99.99,,,-99.99,,2015-07-03 18:53:00,
2015-07-03 14:03:00,77.0,53.0,-100.00,SSW,195,1.0,4.0,43,-99.99,,,-99.99,,2015-07-03 19:03:00,
2015-07-03 14:13:00,77.0,54.0,-100.00,South,185,2.0,4.0,44,-99.99,,,-99.99,,2015-07-03 19:13:00,
2015-07-03 14:23:00,77.0,54.0,-100.00,South,185,2.0,4.0,44,-99.99,,,-99.99,,2015-07-03 19:23:00,
2015-07-03 14:34:00,77.0,54.0,-100.00,SSW,195,3.0,6.0,44,-99.99,,,-99.99,,2015-07-03 19:34:00,
2015-07-03 14:44:00,75.0,51.0,-100.00,West,265,4.0,6.0,42,-99.99,,,-99.99,,2015-07-03 19:44:00,
2015-07-03 14:53:00,76.0,53.0,-100.00,South,175,2.0,7.0,44,-99.99,,,-99.99,,2015-07-03 19:53:00,
2015-07-03 15:03:00,77.0,53.0,-100.00,South,175,1.0,4.0,43,-99.99,,,-99.99,,2015-07-03 20:03:00,
2015-07-03 15:13:00,78.0,53.0,-100.00,SW,215,5.0,7.0,42,-99.99,,,-99.99,,2015-07-03 20:13:00,
2015-07-03 15:23:00,77.0,53.0,-100.00,WSW,250,4.0,7.0,42,-99.99,,,-99.99,,2015-07-03 20:23:00,
2015-07-03 15:34:00,77.0,52.0,-100.00,WSW,240,5.0,8.0,41,-99.99,,,-99.99,,2015-07-03 20:34:00,
2015-07-03 15:43:00,76.0,50.0,-100.00,West,265,3.0,9.0,40,-99.99,,,-99.99,,2015-07-03 20:43:00,
2015-07-03 15:53:00,78.0,51.0,-100.00,WSW,255,1.0,6.0,39,-99.99,,,-99.99,,2015-07-03 20:53:00,
2015-07-03 16:03:00,78.0,52.0,-100.00,North,0,4.0,6.0,40,-99.99,,,-99.99,,2015-07-03 21:03:00,